Weather History for Crestview, FL

Change the Weather History Date:

Thursday, January 3, 2013

  Actual Average Record
Temperature  
Mean Temperature 42 °F -  
Max Temperature 48 °F - - ()
Min Temperature 33 °F - - ()
Degree Days  
Heating Degree Days 23    
Moisture  
Dew Point 41 °F    
Average Humidity 91    
Maximum Humidity 95    
Minimum Humidity 76    
Precipitation  
Precipitation 0.23 in - - ()
Sea Level Pressure  
Sea Level Pressure 30.22 in    
Wind  
Wind Speed 8 mph (North)    
Max Wind Speed 15 mph    
Max Gust Speed 20 mph    
Visibility 9 miles    
Events Rain    
T = Trace of Precipitation, MM = Missing Value Source: NWS Daily Summary

Daily Weather History Graph

Daily Weather History Graph

Search for Another Location

Airport:

Trip Planner

Search our weather history database for the weather conditions in past years. The results will help you decide how hot, cold, wet, or windy it might be!

Date:

Astronomy

Jan. 03, 2013 Rise Set
Actual Time 6:43 AM CST 4:57 PM CST
Civil Twilight 6:17 AM CST 5:24 PM CST
Nautical Twilight 5:47 AM CST 5:54 PM CST
Astronomical Twilight 5:18 AM CST 6:23 PM CST
Moon 11:03 PM CST (1/3) 10:21 AM CST (1/3)
Length of Visible Light 11h 06m
Length of Day
10h 13m
Waning Gibbous, 65% of the Moon is Illuminated
Jan 3
Waning Gibbous
Jan 4
Last Quarter
Jan 11
New
Jan 18
First Quarter
Jan 26
Full

Hourly Weather History & Observations

Time (CST) Temp. Windchill Dew Point Humidity Pressure Visibility Wind Dir Wind Speed Gust Speed Precip Events Conditions
12:55 AM 47.3 °F - 41.2 °F 79% 30.17 in 10.0 mi North 8.1 mph - N/A   Overcast
12:56 AM 48.2 °F - 41.0 °F 76% 30.17 in 10.0 mi North 8.1 mph - N/A Rain Light Rain
1:55 AM 46.0 °F 41.0 °F 43.5 °F 91% 30.18 in 10.0 mi NNW 10.4 mph - 0.01 in Rain Light Rain
2:04 AM 46.4 °F 41.9 °F 42.8 °F 87% 30.18 in 10.0 mi NNW 9.2 mph - N/A Rain Light Rain
2:06 AM 46.4 °F 41.1 °F 42.8 °F 87% 30.18 in 10.0 mi NNW 11.5 mph - N/A Rain Light Rain
2:52 AM 44.6 °F 40.7 °F 42.8 °F 93% 30.18 in 8.0 mi North 6.9 mph - N/A Rain Light Rain
2:55 AM 45.0 °F 41.2 °F 43.2 °F 93% 30.18 in 8.0 mi North 6.9 mph - 0.03 in Rain Light Rain
2:59 AM 44.6 °F 41.4 °F 42.8 °F 93% 30.18 in 6.0 mi Variable 5.8 mph - N/A Rain Light Rain
3:25 AM 44.6 °F 40.7 °F 42.8 °F 93% 30.18 in 6.0 mi North 6.9 mph - N/A Rain Light Rain
3:31 AM 44.6 °F 40.2 °F 42.8 °F 93% 30.17 in 7.0 mi North 8.1 mph - N/A Rain Light Rain
3:32 AM 44.6 °F 40.2 °F 42.8 °F 93% 30.17 in 7.0 mi North 8.1 mph - N/A Rain Light Rain
3:33 AM 44.6 °F 40.2 °F 42.8 °F 93% 30.17 in 8.0 mi North 8.1 mph - N/A Rain Light Rain
3:40 AM 44.6 °F 39.7 °F 42.8 °F 93% 30.17 in 7.0 mi North 9.2 mph - N/A Rain Light Rain
3:43 AM 44.6 °F 40.2 °F 42.8 °F 93% 30.18 in 7.0 mi North 8.1 mph - N/A Rain Light Rain
3:49 AM 44.6 °F 42.2 °F 42.8 °F 93% 30.18 in 7.0 mi NNW 4.6 mph - N/A Rain Light Rain
3:55 AM 44.8 °F 41.0 °F 43.5 °F 95% 30.18 in 6.0 mi North 6.9 mph - 0.04 in Rain Light Rain
4:04 AM 44.6 °F 40.2 °F 42.8 °F 93% 30.17 in 7.0 mi North 8.1 mph - N/A Rain Light Rain
4:07 AM 44.6 °F 40.7 °F 42.8 °F 93% 30.17 in 7.0 mi North 6.9 mph - N/A Rain Light Rain
4:08 AM 44.6 °F 41.4 °F 42.8 °F 93% 30.18 in 7.0 mi North 5.8 mph - N/A Rain Light Rain
4:09 AM 44.6 °F 42.2 °F 42.8 °F 93% 30.18 in 7.0 mi North 4.6 mph - N/A Rain Light Rain
4:14 AM 44.6 °F 42.2 °F 42.8 °F 93% 30.19 in 6.0 mi NNW 4.6 mph - N/A Rain Light Rain
4:55 AM 44.4 °F 39.5 °F 43.2 °F 95% 30.18 in 7.0 mi North 9.2 mph - 0.03 in Rain Light Rain
4:57 AM 44.6 °F 40.2 °F 42.8 °F 93% 30.19 in 7.0 mi North 8.1 mph - N/A Rain Light Rain
5:08 AM 44.6 °F 39.2 °F 42.8 °F 93% 30.19 in 9.0 mi North 10.4 mph - N/A Rain Light Rain
5:09 AM 44.6 °F 39.2 °F 42.8 °F 93% 30.19 in 10.0 mi North 10.4 mph - N/A Rain Light Rain
5:25 AM 44.6 °F 39.2 °F 42.8 °F 93% 30.20 in 10.0 mi North 10.4 mph - N/A Rain Light Rain
5:31 AM 44.6 °F 40.7 °F 42.8 °F 93% 30.20 in 10.0 mi North 6.9 mph - N/A Rain Light Rain
5:54 AM 42.8 °F 37.0 °F 41.0 °F 93% 30.20 in 10.0 mi North 10.4 mph - N/A   Light Drizzle
5:55 AM 43.5 °F 37.9 °F 41.7 °F 93% 30.20 in 10.0 mi North 10.4 mph - 0.01 in Rain Light Rain
6:16 AM 42.8 °F 37.5 °F 41.0 °F 93% 30.22 in 10.0 mi North 9.2 mph - N/A Rain Light Rain
6:38 AM 42.8 °F 37.5 °F 41.0 °F 93% 30.22 in 10.0 mi North 9.2 mph - N/A Rain Light Rain
6:55 AM 43.0 °F 38.2 °F 41.4 °F 94% 30.23 in 10.0 mi North 8.1 mph - 0.02 in Rain Light Rain
6:59 AM 42.8 °F 38.6 °F 41.0 °F 93% 30.22 in 10.0 mi North 6.9 mph - N/A   Mostly Cloudy
7:01 AM 42.8 °F 38.6 °F 41.0 °F 93% 30.23 in 10.0 mi North 6.9 mph - N/A Rain Light Rain
7:04 AM 42.8 °F 38.6 °F 41.0 °F 93% 30.22 in 10.0 mi North 6.9 mph - N/A Rain Light Rain
7:05 AM 42.8 °F 38.6 °F 41.0 °F 93% 30.23 in 10.0 mi North 6.9 mph - N/A Rain Light Rain
7:16 AM 42.8 °F 38.6 °F 41.0 °F 93% 30.22 in 10.0 mi North 6.9 mph - N/A Rain Light Rain
7:34 AM 42.8 °F 39.3 °F 41.0 °F 93% 30.23 in 10.0 mi North 5.8 mph - N/A Rain Light Rain
7:55 AM 43.2 °F 39.0 °F 41.9 °F 95% 30.23 in 10.0 mi North 6.9 mph - 0.01 in Rain Light Rain
8:10 AM 42.8 °F 37.5 °F 41.0 °F 93% 30.22 in 10.0 mi North 9.2 mph - N/A Rain Light Rain
8:26 AM 42.8 °F 38.6 °F 41.0 °F 93% 30.23 in 10.0 mi North 6.9 mph - N/A Rain Light Rain
8:55 AM 43.2 °F 37.0 °F 41.5 °F 94% 30.25 in 6.0 mi North 11.5 mph - 0.04 in Rain Light Rain
9:16 AM 42.8 °F 35.4 °F 41.0 °F 93% 30.24 in 6.0 mi North 15.0 mph 19.6 mph N/A Rain Light Rain
9:55 AM 42.6 °F 36.8 °F 40.1 °F 91% 30.27 in 7.0 mi North 10.4 mph - 0.04 in Rain Light Rain
10:55 AM 43.5 °F 37.9 °F 41.2 °F 91% 30.27 in 10.0 mi North 10.4 mph - N/A   Overcast
11:55 AM 45.1 °F 40.3 °F 40.8 °F 85% 30.23 in 10.0 mi North 9.2 mph - N/A   Overcast
12:55 PM 46.4 °F 41.5 °F 41.0 °F 81% 30.22 in 10.0 mi North 10.4 mph - N/A   Overcast
1:55 PM 46.6 °F - 40.8 °F 80% 30.22 in 10.0 mi North 11.5 mph - N/A   Overcast
2:55 PM 46.0 °F 40.6 °F 40.1 °F 80% 30.23 in 10.0 mi North 11.5 mph - N/A   Mostly Cloudy
3:55 PM 45.9 °F 41.2 °F 39.7 °F 79% 30.25 in 10.0 mi North 9.2 mph - N/A   Mostly Cloudy
4:55 PM 44.4 °F 40.5 °F 39.6 °F 83% 30.28 in 10.0 mi North 6.9 mph - N/A   Mostly Cloudy
5:55 PM 42.3 °F 37.9 °F 38.5 °F 86% 30.30 in 10.0 mi North 6.9 mph - N/A   Mostly Cloudy
6:55 PM 41.4 °F 36.8 °F 38.1 °F 88% 30.31 in 10.0 mi North 6.9 mph - N/A   Scattered Clouds
7:55 PM 39.2 °F 35.9 °F 36.9 °F 91% 30.33 in 10.0 mi NNW 4.6 mph - N/A   Scattered Clouds
8:55 PM 38.5 °F 33.4 °F 35.2 °F 88% 30.34 in 10.0 mi NNW 6.9 mph - N/A   Partly Cloudy
9:55 PM 37.6 °F 31.6 °F 33.8 °F 86% 30.34 in 10.0 mi North 8.1 mph - N/A   Clear
10:55 PM 36.1 °F 31.4 °F 32.4 °F 86% 30.34 in 10.0 mi North 5.8 mph - N/A   Clear
11:55 PM 33.3 °F 26.4 °F 31.3 °F 92% 30.34 in 10.0 mi North 8.1 mph - N/A   Scattered Clouds